Station Historical Data
Daily Summary for February 6, 2012 Units:  Metric    English   Both
« Previous Day
Next Day »
Daily Weekly Monthly Yearly Custom
  High: Low: Average:
Temperature: 11.9 °C 3.8 °C 7.4 °C
Dew Point: 5.9 °C 2.1 °C 4.6 °C
Humidity: 96% 60% 83%
Wind Speed: 14.5km/h 0km/h 4.3km/h
Wind Gust: 17.7km/h - -
Wind- - WSW
Pressure: 1024.6 hPa 1021.6 hPa -
Precipitation: 0 mm    
Historical Graphs
 
 
Tabular Data for February 6, 2012
Time Temperature Dew Point Pressure Wind Wind Speed Wind Gust Humidity Rainfall Rate (Hourly) Conditions
00:00 6 °C 5.1 °C 1021.9 hPa NW 1.6 km/h 3.2 km/h 94% 0 mm
00:01 6 °C 5.1 °C 1021.9 hPa NW 3.2 km/h 3.2 km/h 94% 0 mm
00:06 6 °C 5.1 °C 1021.9 hPa NW 3.2 km/h 3.2 km/h 94% 0 mm
00:11 5.9 °C 5.1 °C 1021.9 hPa NW 3.2 km/h 4.8 km/h 94% 0 mm
00:16 6 °C 5.1 °C 1021.9 hPa NW 1.6 km/h 3.2 km/h 94% 0 mm
00:21 6.1 °C 5.3 °C 1021.9 hPa NW 3.2 km/h 3.2 km/h 95% 0 mm
00:26 6.1 °C 5.4 °C 1021.9 hPa NW 1.6 km/h 3.2 km/h 95% 0 mm
00:31 6.1 °C 5.2 °C 1021.9 hPa NW 3.2 km/h 3.2 km/h 94% 0 mm
00:36 6.1 °C 5.4 °C 1021.9 hPa NW 3.2 km/h 4.8 km/h 95% 0 mm
00:41 6.2 °C 5.4 °C 1021.9 hPa NNW 3.2 km/h 6.4 km/h 95% 0 mm
00:46 6.2 °C 5.5 °C 1022.2 hPa NW 3.2 km/h 4.8 km/h 95% 0 mm
00:51 6.3 °C 5.6 °C 1022.2 hPa WNW 3.2 km/h 4.8 km/h 95% 0 mm
00:56 6.3 °C 5.6 °C 1022.2 hPa WNW 1.6 km/h 4.8 km/h 95% 0 mm
01:02 6.3 °C 5.6 °C 1022.2 hPa Calm   1.6 km/h 95% 0 mm
01:07 6.4 °C 5.7 °C 1022.2 hPa West 1.6 km/h 1.6 km/h 95% 0 mm
01:12 6.5 °C 5.8 °C 1022.6 hPa West 1.6 km/h 3.2 km/h 95% 0 mm
01:17 6.5 °C 5.8 °C 1022.6 hPa NW 3.2 km/h 3.2 km/h 95% 0 mm
01:22 6.5 °C 5.8 °C 1022.6 hPa NW 3.2 km/h 3.2 km/h 95% 0 mm
01:27 6.5 °C 5.8 °C 1022.6 hPa NW 1.6 km/h 1.6 km/h 95% 0 mm
01:32 6.5 °C 5.8 °C 1022.2 hPa NW 1.6 km/h 3.2 km/h 95% 0 mm
01:37 6.4 °C 5.7 °C 1022.2 hPa Calm   1.6 km/h 95% 0 mm
01:42 6.4 °C 5.7 °C 1022.2 hPa NW 3.2 km/h 4.8 km/h 95% 0 mm
01:47 6.4 °C 5.7 °C 1022.2 hPa NNW 6.4 km/h 9.7 km/h 95% 0 mm
01:52 6.5 °C 5.6 °C 1022.2 hPa NW 8 km/h 12.9 km/h 94% 0 mm
01:57 6.7 °C 5.6 °C 1022.2 hPa North 6.4 km/h 9.7 km/h 93% 0 mm
02:02 6.7 °C 5.7 °C 1022.2 hPa NNW 6.4 km/h 11.3 km/h 93% 0 mm
02:07 6.8 °C 5.6 °C 1022.2 hPa North 11.3 km/h 11.3 km/h 92% 0 mm
02:12 6.8 °C 5.6 °C 1022.2 hPa NNW 4.8 km/h 6.4 km/h 92% 0 mm
02:17 6.8 °C 5.6 °C 1022.2 hPa NNW 8 km/h 8 km/h 92% 0 mm
02:22 6.8 °C 5.6 °C 1022.2 hPa NNW 3.2 km/h 8 km/h 92% 0 mm
02:27 6.8 °C 5.6 °C 1022.2 hPa NNW 6.4 km/h 6.4 km/h 92% 0 mm
02:32 6.8 °C 5.6 °C 1021.9 hPa NNW 4.8 km/h 8 km/h 92% 0 mm
02:37 6.8 °C 5.6 °C 1021.9 hPa NNW 4.8 km/h 6.4 km/h 92% 0 mm
02:42 6.7 °C 5.5 °C 1021.9 hPa NNW 3.2 km/h 6.4 km/h 92% 0 mm
02:47 6.7 °C 5.4 °C 1022.2 hPa North 4.8 km/h 6.4 km/h 92% 0 mm
02:52 6.7 °C 5.4 °C 1022.2 hPa NNW 4.8 km/h 6.4 km/h 92% 0 mm
02:57 6.7 °C 5.4 °C 1022.2 hPa North 3.2 km/h 4.8 km/h 92% 0 mm
03:02 6.6 °C 5.4 °C 1022.2 hPa North 3.2 km/h 4.8 km/h 92% 0 mm
03:07 6.6 °C 5.6 °C 1021.9 hPa NNW 1.6 km/h 6.4 km/h 93% 0 mm
03:12 6.6 °C 5.6 °C 1022.2 hPa NNW 3.2 km/h 3.2 km/h 93% 0 mm
03:17 6.6 °C 5.6 °C 1022.2 hPa North 3.2 km/h 6.4 km/h 93% 0 mm
03:22 6.6 °C 5.6 °C 1022.2 hPa NNW 1.6 km/h 4.8 km/h 93% 0 mm
03:28 6.6 °C 5.6 °C 1022.2 hPa North 4.8 km/h 4.8 km/h 93% 0 mm
03:33 6.6 °C 5.5 °C 1022.2 hPa NW 4.8 km/h 4.8 km/h 93% 0 mm
03:38 6.6 °C 5.6 °C 1022.2 hPa NNW 3.2 km/h 8 km/h 93% 0 mm
03:43 6.6 °C 5.5 °C 1022.2 hPa North 6.4 km/h 6.4 km/h 93% 0 mm
03:48 6.6 °C 5.5 °C 1022.2 hPa NNE 4.8 km/h 4.8 km/h 93% 0 mm
03:53 6.6 °C 5.5 °C 1022.2 hPa NNW 3.2 km/h 6.4 km/h 93% 0 mm
03:58 6.6 °C 5.5 °C 1022.2 hPa NNW 4.8 km/h 6.4 km/h 93% 0 mm
04:03 6.6 °C 5.6 °C 1022.2 hPa NW 3.2 km/h 4.8 km/h 93% 0 mm
04:08 6.6 °C 5.6 °C 1022.2 hPa NNW 1.6 km/h 6.4 km/h 93% 0 mm
04:13 6.6 °C 5.5 °C 1022.2 hPa NW 3.2 km/h 3.2 km/h 93% 0 mm
04:18 6.6 °C 5.5 °C 1022.2 hPa NW 4.8 km/h 8 km/h 93% 0 mm
04:23 6.6 °C 5.5 °C 1022.2 hPa NNW 4.8 km/h 6.4 km/h 93% 0 mm
04:28 6.5 °C 5.4 °C 1022.2 hPa NNW 3.2 km/h 4.8 km/h 93% 0 mm
04:33 6.5 °C 5.4 °C 1022.2 hPa NW 1.6 km/h 4.8 km/h 93% 0 mm
04:38 6.5 °C 5.4 °C 1022.2 hPa NNW 4.8 km/h 4.8 km/h 93% 0 mm
04:43 6.5 °C 5.4 °C 1021.9 hPa NNW 3.2 km/h 4.8 km/h 93% 0 mm
04:48 6.5 °C 5.4 °C 1022.2 hPa NW 3.2 km/h 4.8 km/h 93% 0 mm
04:53 6.5 °C 5.4 °C 1022.2 hPa NNW 1.6 km/h 6.4 km/h 93% 0 mm
04:58 6.5 °C 5.4 °C 1021.9 hPa North 3.2 km/h 4.8 km/h 93% 0 mm
05:03 6.4 °C 5.4 °C 1021.9 hPa North 4.8 km/h 4.8 km/h 93% 0 mm
05:08 6.4 °C 5.4 °C 1022.2 hPa NNW 4.8 km/h 6.4 km/h 93% 0 mm
05:13 6.4 °C 5.4 °C 1021.9 hPa North 3.2 km/h 4.8 km/h 93% 0 mm
05:18 6.4 °C 5.3 °C 1021.9 hPa North 3.2 km/h 3.2 km/h 93% 0 mm
05:23 6.4 °C 5.3 °C 1022.2 hPa North 1.6 km/h 4.8 km/h 93% 0 mm
05:28 6.4 °C 5.3 °C 1022.2 hPa NNE 1.6 km/h 4.8 km/h 93% 0 mm
05:33 6.4 °C 5.3 °C 1022.2 hPa North 1.6 km/h 3.2 km/h 93% 0 mm
05:38 6.3 °C 5.3 °C 1022.2 hPa Calm   3.2 km/h 93% 0 mm
05:43 6.3 °C 5.3 °C 1022.2 hPa Calm   3.2 km/h 93% 0 mm
05:48 6.3 °C 5.2 °C 1022.2 hPa North 1.6 km/h 1.6 km/h 93% 0 mm
05:53 6.3 °C 5.2 °C 1022.6 hPa NNW 1.6 km/h 1.6 km/h 93% 0 mm
05:58 6.3 °C 5.4 °C 1022.6 hPa NNW 1.6 km/h 1.6 km/h 94% 0 mm
06:03 6.3 °C 5.4 °C 1022.6 hPa Calm   3.2 km/h 94% 0 mm
06:08 6.3 °C 5.4 °C 1022.6 hPa NW 3.2 km/h 3.2 km/h 94% 0 mm
06:13 6.3 °C 5.4 °C 1022.6 hPa Calm   3.2 km/h 94% 0 mm
06:18 6.3 °C 5.4 °C 1022.6 hPa NW 3.2 km/h 6.4 km/h 94% 0 mm
06:23 6.3 °C 5.4 °C 1022.6 hPa NW 4.8 km/h 6.4 km/h 94% 0 mm
06:28 6.3 °C 5.3 °C 1022.6 hPa WNW 6.4 km/h 8 km/h 93% 0 mm
06:33 6.3 °C 5.3 °C 1022.6 hPa NW 4.8 km/h 8 km/h 93% 0 mm
06:38 6.3 °C 5.2 °C 1022.6 hPa NW 3.2 km/h 9.7 km/h 93% 0 mm
06:43 6.2 °C 5.2 °C 1022.6 hPa WNW 4.8 km/h 8 km/h 93% 0 mm
06:48 6.2 °C 5.1 °C 1022.6 hPa NW 4.8 km/h 9.7 km/h 93% 0 mm
06:54 6 °C 4.9 °C 1022.6 hPa WNW 4.8 km/h 6.4 km/h 93% 0 mm
06:59 5.8 °C 4.7 °C 1022.6 hPa WNW 4.8 km/h 8 km/h 93% 0 mm
07:04 5.7 °C 4.6 °C 1022.6 hPa WNW 4.8 km/h 6.4 km/h 93% 0 mm
07:09 5.6 °C 4.5 °C 1022.6 hPa WNW 3.2 km/h 6.4 km/h 93% 0 mm
07:14 5.4 °C 4.3 °C 1022.6 hPa WNW 4.8 km/h 6.4 km/h 93% 0 mm
07:19 5.3 °C 4.3 °C 1022.9 hPa NW 3.2 km/h 4.8 km/h 93% 0 mm
07:24 5.2 °C 4.3 °C 1022.9 hPa NW 3.2 km/h 4.8 km/h 94% 0 mm
07:29 5.1 °C 4.2 °C 1022.9 hPa WNW 1.6 km/h 3.2 km/h 94% 0 mm
07:34 4.9 °C 4.1 °C 1022.9 hPa NW 3.2 km/h 3.2 km/h 94% 0 mm
07:39 4.9 °C 4 °C 1022.9 hPa Calm   1.6 km/h 94% 0 mm
07:44 4.9 °C 4.2 °C 1022.9 hPa NW 1.6 km/h 3.2 km/h 95% 0 mm
07:49 4.8 °C 4.1 °C 1022.9 hPa NW 1.6 km/h 1.6 km/h 95% 0 mm
07:54 4.8 °C 4.1 °C 1023.2 hPa NW 1.6 km/h 1.6 km/h 95% 0 mm
07:59 4.7 °C 3.9 °C 1023.2 hPa NW 1.6 km/h 1.6 km/h 95% 0 mm
08:04 4.7 °C 3.9 °C 1023.2 hPa NW 1.6 km/h 3.2 km/h 95% 0 mm
08:09 4.7 °C 4 °C 1023.2 hPa NW 1.6 km/h 3.2 km/h 95% 0 mm
08:14 4.7 °C 4 °C 1023.6 hPa NW 3.2 km/h 3.2 km/h 95% 0 mm
08:19 4.8 °C 4.1 °C 1023.6 hPa NW 4.8 km/h 4.8 km/h 95% 0 mm
08:24 4.8 °C 4.1 °C 1023.6 hPa NW 6.4 km/h 6.4 km/h 95% 0 mm
08:29 5.1 °C 4.3 °C 1023.6 hPa WNW 4.8 km/h 8 km/h 95% 0 mm
08:34 5.2 °C 4.4 °C 1023.6 hPa WNW 6.4 km/h 8 km/h 95% 0 mm
08:39 5.3 °C 4.6 °C 1023.9 hPa WNW 8 km/h 8 km/h 95% 0 mm
08:44 5.3 °C 4.6 °C 1023.9 hPa WNW 4.8 km/h 6.4 km/h 95% 0 mm
08:49 5.4 °C 4.7 °C 1023.9 hPa NW 4.8 km/h 8 km/h 95% 0 mm
08:54 5.5 °C 4.8 °C 1023.9 hPa West 3.2 km/h 6.4 km/h 95% 0 mm
08:59 5.5 °C 4.8 °C 1023.9 hPa WNW 4.8 km/h 8 km/h 95% 0 mm
09:04 5.4 °C 4.7 °C 1023.9 hPa WNW 4.8 km/h 6.4 km/h 95% 0 mm
09:09 5.3 °C 4.6 °C 1024.3 hPa NW 8 km/h 8 km/h 95% 0 mm
09:14 5.3 °C 4.6 °C 1024.3 hPa NW 6.4 km/h 9.7 km/h 95% 0 mm
09:19 5.3 °C 4.6 °C 1024.3 hPa WNW 6.4 km/h 8 km/h 95% 0 mm
09:24 5.4 °C 4.7 °C 1024.3 hPa NW 4.8 km/h 6.4 km/h 95% 0 mm
09:29 5.5 °C 4.9 °C 1024.3 hPa WNW 4.8 km/h 6.4 km/h 96% 0 mm
09:34 5.7 °C 4.9 °C 1024.3 hPa NW 4.8 km/h 6.4 km/h 95% 0 mm
09:39 5.7 °C 5 °C 1024.3 hPa WNW 6.4 km/h 9.7 km/h 95% 0 mm
09:44 5.9 °C 5.2 °C 1024.3 hPa WNW 4.8 km/h 4.8 km/h 95% 0 mm
09:50 6.2 °C 5.3 °C 1024.3 hPa WNW 11.3 km/h 11.3 km/h 94% 0 mm
09:55 6.2 °C 4.9 °C 1024.3 hPa NW 3.2 km/h 9.7 km/h 92% 0 mm
10:00 6.2 °C 4.9 °C 1024.3 hPa WNW 4.8 km/h 11.3 km/h 91% 0 mm
10:05 6.3 °C 5 °C 1024.6 hPa WNW 4.8 km/h 8 km/h 91% 0 mm
10:10 6.7 °C 5.2 °C 1024.6 hPa NNE 4.8 km/h 8 km/h 90% 0 mm
10:15 7.1 °C 5.4 °C 1024.3 hPa NNE 8 km/h 11.3 km/h 89% 0 mm
10:20 7.2 °C 5.4 °C 1024.6 hPa North 3.2 km/h 6.4 km/h 88% 0 mm
10:25 7.6 °C 5.4 °C 1024.6 hPa NW 1.6 km/h 6.4 km/h 86% 0 mm
10:30 7.4 °C 5.1 °C 1024.6 hPa WNW 6.4 km/h 8 km/h 85% 0 mm
10:35 7.4 °C 5.1 °C 1024.6 hPa West 4.8 km/h 6.4 km/h 85% 0 mm
10:40 7.4 °C 4.9 °C 1024.6 hPa NW 8 km/h 8 km/h 84% 0 mm
10:45 7.4 °C 4.9 °C 1024.6 hPa WNW 4.8 km/h 6.4 km/h 84% 0 mm
10:50 7.6 °C 5.3 °C 1024.6 hPa NW 4.8 km/h 4.8 km/h 85% 0 mm
10:55 7.6 °C 4.8 °C 1024.6 hPa NNW 6.4 km/h 6.4 km/h 83% 0 mm
11:00 7.6 °C 4.8 °C 1024.6 hPa NNE 8 km/h 9.7 km/h 83% 0 mm
11:05 7.9 °C 5 °C 1024.6 hPa NNE 6.4 km/h 9.7 km/h 82% 0 mm
11:10 8.4 °C 5.6 °C 1024.6 hPa NW 11.3 km/h 11.3 km/h 82% 0 mm
11:15 8.9 °C 5.3 °C 1024.6 hPa NNW 8 km/h 14.5 km/h 78% 0 mm
11:20 9.1 °C 5.6 °C 1024.6 hPa North 9.7 km/h 9.7 km/h 79% 0 mm
11:25 9.3 °C 5.7 °C 1024.6 hPa NW 3.2 km/h 9.7 km/h 78% 0 mm
11:31 9.4 °C 5.4 °C 1024.3 hPa WNW 3.2 km/h 6.4 km/h 76% 0 mm
11:36 9.6 °C 5.6 °C 1024.3 hPa North 9.7 km/h 9.7 km/h 76% 0 mm
11:41 9.8 °C 5.9 °C 1024.3 hPa NW 11.3 km/h 11.3 km/h 77% 0 mm
11:46 9.2 °C 4.8 °C 1024.3 hPa WNW 6.4 km/h 9.7 km/h 74% 0 mm
11:51 9.1 °C 5.1 °C 1024.3 hPa WSW 3.2 km/h 8 km/h 76% 0 mm
11:56 9.5 °C 5.1 °C 1024.3 hPa NE 3.2 km/h 9.7 km/h 74% 0 mm
12:01 9.7 °C 5.3 °C 1024.3 hPa North 9.7 km/h 12.9 km/h 74% 0 mm
12:06 9.8 °C 5 °C 1024.3 hPa NW 8 km/h 11.3 km/h 72% 0 mm
12:11 9.3 °C 4.7 °C 1024.3 hPa NW 6.4 km/h 11.3 km/h 73% 0 mm
12:16 9.4 °C 4.4 °C 1023.9 hPa WNW 4.8 km/h 9.7 km/h 71% 0 mm
12:22 9.8 °C 5 °C 1023.9 hPa NW 14.5 km/h 16.1 km/h 72% 0 mm
12:27 9.7 °C 4.7 °C 1023.9 hPa WNW 4.8 km/h 14.5 km/h 71% 0 mm
12:32 9.8 °C 4.8 °C 1023.9 hPa WNW 4.8 km/h 12.9 km/h 71% 0 mm
12:37 10.3 °C 5.7 °C 1023.9 hPa NNW 11.3 km/h 11.3 km/h 73% 0 mm
12:42 10.1 °C 4.2 °C 1023.9 hPa NW 6.4 km/h 12.9 km/h 67% 0 mm
12:47 10 °C 4.4 °C 1023.6 hPa NW 11.3 km/h 14.5 km/h 68% 0 mm
12:52 10.3 °C 4.7 °C 1023.6 hPa WSW 4.8 km/h 9.7 km/h 68% 0 mm
12:57 10.7 °C 5.1 °C 1023.6 hPa NW 11.3 km/h 17.7 km/h 68% 0 mm
13:02 10.2 °C 4.8 °C 1023.6 hPa NNW 8 km/h 12.9 km/h 69% 0 mm
13:07 9.8 °C 4.4 °C 1023.2 hPa NW 4.8 km/h 9.7 km/h 69% 0 mm
13:12 10.2 °C 4.6 °C 1023.2 hPa NW 3.2 km/h 9.7 km/h 68% 0 mm
13:17 10.4 °C 3.9 °C 1023.2 hPa NNW 6.4 km/h 11.3 km/h 64% 0 mm
13:22 10.9 °C 4.4 °C 1022.9 hPa WNW 6.4 km/h 9.7 km/h 64% 0 mm
13:27 11.2 °C 4.9 °C 1022.9 hPa NW 6.4 km/h 14.5 km/h 65% 0 mm
13:32 11.2 °C 4.7 °C 1022.6 hPa NNW 8 km/h 12.9 km/h 64% 0 mm
13:37 10.7 °C 4.4 °C 1022.6 hPa NNW 3.2 km/h 8 km/h 65% 0 mm
13:42 10.6 °C 4.5 °C 1022.6 hPa NW 14.5 km/h 14.5 km/h 66% 0 mm
13:47 10.4 °C 4.6 °C 1022.2 hPa NW 8 km/h 12.9 km/h 67% 0 mm
13:52 10.3 °C 4.1 °C 1022.2 hPa NNW 3.2 km/h 9.7 km/h 65% 0 mm
13:57 10.4 °C 4.4 °C 1022.2 hPa NW 6.4 km/h 14.5 km/h 66% 0 mm
14:02 10.6 °C 5.2 °C 1022.2 hPa NW 9.7 km/h 11.3 km/h 69% 0 mm
14:07 10.4 °C 4.4 °C 1022.2 hPa WNW 6.4 km/h 12.9 km/h 66% 0 mm
14:12 10.3 °C 4.3 °C 1022.2 hPa NW 4.8 km/h 11.3 km/h 66% 0 mm
14:17 10.7 °C 5 °C 1022.2 hPa NW 12.9 km/h 12.9 km/h 68% 0 mm
14:23 11 °C 5.1 °C 1022.2 hPa NW 11.3 km/h 11.3 km/h 67% 0 mm
14:28 11.1 °C 5.2 °C 1021.9 hPa NNW 4.8 km/h 11.3 km/h 67% 0 mm
14:33 11.2 °C 5.5 °C 1021.9 hPa NW 12.9 km/h 12.9 km/h 68% 0 mm
14:38 11.4 °C 4.8 °C 1021.9 hPa NW 3.2 km/h 14.5 km/h 64% 0 mm
14:43 11.4 °C 4.4 °C 1021.9 hPa NW 6.4 km/h 11.3 km/h 62% 0 mm
14:48 11.3 °C 4.5 °C 1021.9 hPa WNW 9.7 km/h 9.7 km/h 63% 0 mm
14:53 10.9 °C 4.6 °C 1021.9 hPa WNW 4.8 km/h 11.3 km/h 65% 0 mm
14:58 10.8 °C 4.1 °C 1021.9 hPa West 3.2 km/h 4.8 km/h 63% 0 mm
15:03 10.9 °C 4.6 °C 1021.9 hPa WNW 8 km/h 12.9 km/h 65% 0 mm
15:08 10.7 °C 4.2 °C 1021.9 hPa West 1.6 km/h 9.7 km/h 64% 0 mm
15:13 10.6 °C 4.3 °C 1021.9 hPa NW 9.7 km/h 9.7 km/h 65% 0 mm
15:18 11 °C 5.1 °C 1021.9 hPa NNW 11.3 km/h 11.3 km/h 67% 0 mm
15:23 11 °C 4.7 °C 1021.9 hPa NNW 4.8 km/h 9.7 km/h 65% 0 mm
15:28 10.9 °C 4.1 °C 1021.9 hPa NNW 4.8 km/h 6.4 km/h 63% 0 mm
15:33 11.1 °C 4.8 °C 1021.6 hPa North 8 km/h 8 km/h 65% 0 mm
15:38 11.4 °C 4.7 °C 1021.9 hPa North 3.2 km/h 8 km/h 63% 0 mm
15:43 11.8 °C 4.6 °C 1021.9 hPa NW 9.7 km/h 9.7 km/h 61% 0 mm
15:48 11.6 °C 4.8 °C 1021.9 hPa NNW 9.7 km/h 16.1 km/h 63% 0 mm
15:53 11.1 °C 4.6 °C 1021.9 hPa North 9.7 km/h 12.9 km/h 64% 0 mm
15:58 10.8 °C 4.9 °C 1021.9 hPa NW 4.8 km/h 8 km/h 67% 0 mm
16:03 10.9 °C 5.1 °C 1021.9 hPa NNW 3.2 km/h 6.4 km/h 67% 0 mm
16:08 11.1 °C 4.7 °C 1021.9 hPa NW 3.2 km/h 3.2 km/h 65% 0 mm
16:13 11.4 °C 4.7 °C 1021.9 hPa NE 1.6 km/h 9.7 km/h 63% 0 mm
16:18 11.5 °C 4.7 °C 1021.6 hPa NNE 4.8 km/h 8 km/h 63% 0 mm
16:23 11.6 °C 4.6 °C 1021.9 hPa Calm   4.8 km/h 62% 0 mm
16:28 11.8 °C 4.7 °C 1021.6 hPa NW 6.4 km/h 12.9 km/h 62% 0 mm
16:33 11.8 °C 4.3 °C 1021.9 hPa NW 9.7 km/h 9.7 km/h 60% 0 mm
16:38 11.8 °C 4.3 °C 1021.9 hPa NNE 6.4 km/h 6.4 km/h 60% 0 mm
16:43 11.9 °C 4.7 °C 1021.6 hPa NE 8 km/h 9.7 km/h 61% 0 mm
16:49 11.8 °C 4.5 °C 1021.9 hPa NNE 3.2 km/h 11.3 km/h 61% 0 mm
16:54 11.8 °C 4.8 °C 1021.9 hPa NNE 4.8 km/h 14.5 km/h 62% 0 mm
16:59 11.8 °C 5 °C 1021.9 hPa North 8 km/h 9.7 km/h 63% 0 mm
17:04 11.7 °C 4.9 °C 1021.9 hPa NE 11.3 km/h 11.3 km/h 63% 0 mm
17:09 11.4 °C 4.7 °C 1021.9 hPa NE 8 km/h 12.9 km/h 63% 0 mm
17:14 11.2 °C 4.4 °C 1021.9 hPa NE 6.4 km/h 9.7 km/h 63% 0 mm
17:19 10.8 °C 4.3 °C 1021.9 hPa NNE 8 km/h 11.3 km/h 64% 0 mm
17:24 10.6 °C 4.5 °C 1021.9 hPa NNE 3.2 km/h 6.4 km/h 66% 0 mm
17:29 10.4 °C 4.3 °C 1021.6 hPa North 3.2 km/h 8 km/h 66% 0 mm
17:34 10.4 °C 4.4 °C 1021.9 hPa North 3.2 km/h 6.4 km/h 66% 0 mm
17:39 10.5 °C 4.6 °C 1021.6 hPa North 4.8 km/h 8 km/h 67% 0 mm
17:44 10.6 °C 4.5 °C 1021.6 hPa North 4.8 km/h 8 km/h 66% 0 mm
17:49 10.5 °C 4.4 °C 1021.6 hPa NNW 4.8 km/h 9.7 km/h 66% 0 mm
17:54 10.5 °C 4.4 °C 1021.6 hPa NNW 3.2 km/h 9.7 km/h 66% 0 mm
17:59 10.4 °C 4.6 °C 1021.6 hPa North 4.8 km/h 8 km/h 67% 0 mm
18:04 10.3 °C 4.4 °C 1021.6 hPa NNE 3.2 km/h 6.4 km/h 67% 0 mm
18:09 10.1 °C 4.3 °C 1021.6 hPa North 3.2 km/h 6.4 km/h 67% 0 mm
18:14 9.9 °C 4.3 °C 1021.6 hPa North 4.8 km/h 4.8 km/h 68% 0 mm
18:19 9.6 °C 4.2 °C 1021.6 hPa North 6.4 km/h 6.4 km/h 69% 0 mm
18:24 9.3 °C 4.1 °C 1021.9 hPa North 3.2 km/h 6.4 km/h 70% 0 mm
18:29 8.9 °C 4 °C 1021.9 hPa North 3.2 km/h 6.4 km/h 71% 0 mm
18:34 8.7 °C 3.9 °C 1021.9 hPa NNW 4.8 km/h 8 km/h 72% 0 mm
18:39 8.4 °C 3.9 °C 1021.9 hPa North 3.2 km/h 4.8 km/h 73% 0 mm
18:44 8.3 °C 3.9 °C 1021.9 hPa NNW 3.2 km/h 6.4 km/h 74% 0 mm
18:49 8.2 °C 3.8 °C 1021.9 hPa NNW 3.2 km/h 4.8 km/h 74% 0 mm
18:54 8.1 °C 3.9 °C 1021.9 hPa NNW 3.2 km/h 4.8 km/h 75% 0 mm
18:59 8 °C 3.8 °C 1021.9 hPa North 3.2 km/h 4.8 km/h 75% 0 mm
19:04 7.8 °C 3.7 °C 1021.9 hPa North 3.2 km/h 6.4 km/h 75% 0 mm
19:09 7.7 °C 3.8 °C 1021.9 hPa North 1.6 km/h 4.8 km/h 76% 0 mm
19:14 7.6 °C 3.6 °C 1021.9 hPa North 3.2 km/h 4.8 km/h 76% 0 mm
19:19 7.4 °C 3.6 °C 1021.9 hPa North 1.6 km/h 3.2 km/h 77% 0 mm
19:24 7.3 °C 3.5 °C 1021.9 hPa North 3.2 km/h 3.2 km/h 77% 0 mm
19:29 7.3 °C 3.7 °C 1021.9 hPa NNW 3.2 km/h 6.4 km/h 78% 0 mm
19:34 7.2 °C 3.6 °C 1021.9 hPa North 4.8 km/h 4.8 km/h 78% 0 mm
19:39 7.1 °C 3.5 °C 1021.9 hPa North 4.8 km/h 4.8 km/h 78% 0 mm
19:40 7.1 °C 3.5 °C 1021.9 hPa North 4.8 km/h 4.8 km/h 78% 0 mm
19:45 6.9 °C 3.6 °C 1022.2 hPa NNW 4.8 km/h 4.8 km/h 79% 0 mm
19:50 6.8 °C 3.4 °C 1022.2 hPa North 3.2 km/h 4.8 km/h 79% 0 mm
19:55 6.7 °C 3.5 °C 1022.2 hPa North 1.6 km/h 3.2 km/h 80% 0 mm
20:00 6.7 °C 3.5 °C 1022.2 hPa NNW 3.2 km/h 4.8 km/h 80% 0 mm
20:05 6.7 °C 3.4 °C 1022.6 hPa North 3.2 km/h 3.2 km/h 80% 0 mm
20:10 6.7 °C 3.4 °C 1022.6 hPa Calm   3.2 km/h 80% 0 mm
20:15 6.6 °C 3.4 °C 1022.6 hPa NNE 3.2 km/h 3.2 km/h 80% 0 mm
20:20 6.6 °C 3.4 °C 1022.6 hPa Calm   3.2 km/h 80% 0 mm
20:25 6.5 °C 3.3 °C 1022.6 hPa North 1.6 km/h 1.6 km/h 80% 0 mm
20:30 6.4 °C 3.4 °C 1022.6 hPa NNE 1.6 km/h 1.6 km/h 81% 0 mm
20:35 6.3 °C 3.3 °C 1022.9 hPa NNE 1.6 km/h 3.2 km/h 81% 0 mm
20:36 6.3 °C 3.3 °C 1022.9 hPa NNE 1.6 km/h 3.2 km/h 81% 0 mm
20:41 6.2 °C 3.3 °C 1022.9 hPa NNW 3.2 km/h 3.2 km/h 82% 0 mm
20:46 6.1 °C 3.2 °C 1022.9 hPa North 3.2 km/h 3.2 km/h 82% 0 mm
20:51 5.9 °C 3.2 °C 1022.6 hPa NNE 3.2 km/h 3.2 km/h 83% 0 mm
20:56 5.8 °C 3.1 °C 1022.6 hPa NNE 1.6 km/h 3.2 km/h 83% 0 mm
21:01 5.8 °C 3.1 °C 1022.6 hPa North 1.6 km/h 3.2 km/h 83% 0 mm
21:06 5.8 °C 3.1 °C 1022.6 hPa NNE 1.6 km/h 3.2 km/h 83% 0 mm
21:11 5.7 °C 3.1 °C 1022.9 hPa North 1.6 km/h 3.2 km/h 83% 0 mm
21:16 5.6 °C 2.9 °C 1022.9 hPa North 3.2 km/h 3.2 km/h 83% 0 mm
21:21 5.5 °C 3 °C 1022.9 hPa NNW 1.6 km/h 4.8 km/h 84% 0 mm
21:26 5.4 °C 2.9 °C 1022.9 hPa North 4.8 km/h 4.8 km/h 84% 0 mm
21:31 5.4 °C 2.9 °C 1022.9 hPa NNW 1.6 km/h 3.2 km/h 84% 0 mm
21:36 5.3 °C 2.8 °C 1022.9 hPa North 3.2 km/h 4.8 km/h 84% 0 mm
21:41 5.2 °C 2.8 °C 1022.9 hPa North 1.6 km/h 3.2 km/h 85% 0 mm
21:46 5.2 °C 2.9 °C 1022.9 hPa North 3.2 km/h 3.2 km/h 85% 0 mm
21:51 5.2 °C 2.9 °C 1022.9 hPa NNE 1.6 km/h 3.2 km/h 85% 0 mm
21:56 5.2 °C 2.9 °C 1022.9 hPa NNE 3.2 km/h 6.4 km/h 85% 0 mm
22:01 5.2 °C 2.7 °C 1022.9 hPa North 3.2 km/h 6.4 km/h 84% 0 mm
22:06 5.1 °C 2.8 °C 1022.9 hPa North 3.2 km/h 4.8 km/h 85% 0 mm
22:11 5.1 °C 2.7 °C 1022.9 hPa NNE 1.6 km/h 3.2 km/h 85% 0 mm
22:16 5.1 °C 2.7 °C 1022.9 hPa North 1.6 km/h 3.2 km/h 85% 0 mm
22:21 5.1 °C 2.8 °C 1022.9 hPa NNE 1.6 km/h 4.8 km/h 85% 0 mm
22:26 5.1 °C 2.6 °C 1022.9 hPa NNE 3.2 km/h 4.8 km/h 84% 0 mm
22:31 5.1 °C 2.8 °C 1022.9 hPa NNE 1.6 km/h 4.8 km/h 85% 0 mm
22:36 5.1 °C 2.8 °C 1022.9 hPa Calm   3.2 km/h 85% 0 mm
22:41 5.2 °C 2.7 °C 1022.9 hPa North 1.6 km/h 3.2 km/h 84% 0 mm
22:46 5.1 °C 2.6 °C 1022.9 hPa North 3.2 km/h 3.2 km/h 84% 0 mm
22:51 5.1 °C 2.6 °C 1022.9 hPa NNE 4.8 km/h 4.8 km/h 84% 0 mm
22:56 5.1 °C 2.6 °C 1022.9 hPa North 1.6 km/h 3.2 km/h 84% 0 mm
23:01 4.9 °C 2.6 °C 1022.9 hPa North 3.2 km/h 3.2 km/h 85% 0 mm
23:06 4.8 °C 2.5 °C 1022.9 hPa North 1.6 km/h 3.2 km/h 85% 0 mm
23:11 4.7 °C 2.5 °C 1022.9 hPa Calm   1.6 km/h 86% 0 mm
23:16 4.6 °C 2.4 °C 1022.9 hPa Calm     86% 0 mm
23:22 4.5 °C 2.5 °C 1022.9 hPa Calm     87% 0 mm
23:27 4.4 °C 2.4 °C 1022.9 hPa Calm     87% 0 mm
23:32 4.3 °C 2.3 °C 1022.9 hPa Calm   1.6 km/h 87% 0 mm
23:37 4.2 °C 2.2 °C 1022.9 hPa Calm     87% 0 mm
23:42 4.1 °C 2.2 °C 1022.9 hPa Calm     88% 0 mm
23:47 3.9 °C 2.1 °C 1022.9 hPa Calm     88% 0 mm
23:52 3.9 °C 2.2 °C 1022.9 hPa Calm     89% 0 mm
23:57 3.8 °C 2.1 °C 1022.9 hPa Calm     89% 0 mm
Compliments of Weather Underground